Decimomannu, Italy

6:03 AM CEST on April 30, 2017 (GMT +0200)
Decimomannu Mil

Weather History for LIED - July, 2013

Change the Weather History Date:

Sunday, July 14, 2013

  Actual Average Record
Temperature  
Mean Temperature 82 °F -  
Max Temperature 93 °F 89 °F 96 °F (2012)
Min Temperature 70 °F 64 °F 57 °F (2007)
Cooling Degree Days 16    
Growing Degree Days 32 (Base 50)    
Moisture  
Dew Point 64 °F    
Average Humidity 57    
Maximum Humidity 88    
Minimum Humidity 27    
Precipitation  
Precipitation 0.00 in 0.01 in - ()
Sea Level Pressure  
Sea Level Pressure 30.00 in    
Wind  
Wind Speed 8 mph ()    
Max Wind Speed 34 mph    
Max Gust Speed -    
Visibility 8.4 miles    
Events      
Averages and records for this station are not official NWS values.
T = Trace of Precipitation, MM = Missing Value Source: Averaged Metar Reports

Daily Weather History Graph

Daily Weather History Graph

Search for Another Location

Airport or City:

Trip Planner

Search our weather history database for the weather conditions in past years. The results will help you decide how hot, cold, wet, or windy it might be!

Date:

Astronomy

Jul. 14, 2013 Rise Set
Actual Time 6:09 AM CEST 8:50 PM CEST
Civil Twilight 5:37 AM CEST 9:21 PM CEST
Nautical Twilight 4:58 AM CEST 10:01 PM CEST
Astronomical Twilight 4:13 AM CEST 10:45 PM CEST
Moon 12:06 PM CEST (7/14) 11:56 PM CEST (7/14)
Length of Visible Light 15h 44m
Length of Day
14h 41m
Waxing Crescent, 32% of the Moon is Illuminated
Jul 14
Waxing Crescent
Jul 16
First Quarter
Jul 22
Full
Jul 29
Last Quarter
Aug 6
New

Hourly Weather History & Observations

Time (CEST) Temp. Heat Index Dew Point Humidity Pressure Visibility Wind Dir Wind Speed Gust Speed Precip Events Conditions
12:55 AM 73.4 °F - 69.8 °F 88% 30.01 in 6.2 mi ESE 4.6 mph - N/A   Partly Cloudy
1:55 AM 73.4 °F - 69.8 °F 88% 30.01 in 6.2 mi ESE 4.6 mph - N/A   Partly Cloudy
2:00 AM 73 °F - 70 °F 87% 30.03 in 9 mi ESE 8.9 mph - -   Scattered Clouds
2:55 AM 73.4 °F - 69.8 °F 88% 30.01 in 6.2 mi East 3.5 mph - N/A   Partly Cloudy
3:55 AM 73.4 °F - 68.0 °F 83% 30.01 in 6.2 mi North 4.6 mph - N/A   Partly Cloudy
4:55 AM 71.6 °F - 68.0 °F 88% 29.98 in 6.2 mi NW 6.9 mph - N/A   Partly Cloudy
5:00 AM 72 °F - 67 °F 81% 30.00 in 7 mi NW 13.4 mph - -   Scattered Clouds
5:55 AM 71.6 °F - 68.0 °F 88% 29.98 in 6.2 mi NNW 6.9 mph - N/A   Scattered Clouds
6:55 AM 71.6 °F - 66.2 °F 83% 29.98 in 6.2 mi NNW 4.6 mph - N/A   Partly Cloudy
7:55 AM 75.2 °F - 68.0 °F 78% 30.01 in - NNW 6.9 mph - N/A   Clear
8:00 AM 75 °F - 67 °F 71% 30.01 in 12 mi NNW 6.9 mph - -   Scattered Clouds
8:55 AM 78.8 °F - 66.2 °F 65% 30.01 in - NNW 8.1 mph - N/A   Clear
9:55 AM 84.2 °F 86.6 °F 66.2 °F 55% 30.01 in - North 1.2 mph - N/A   Clear
10:55 AM 87.8 °F 87.1 °F 59.0 °F 38% 30.01 in 6.2 mi WNW 3.5 mph - N/A   Partly Cloudy
11:00 AM 88 °F - 59 °F 27% 30.01 in 16 mi WNW 6.7 mph - -   Scattered Clouds
11:55 AM 89.6 °F 89.5 °F 60.8 °F 38% 30.01 in 6.2 mi WNW 5.8 mph - N/A   Partly Cloudy
12:55 PM 91.4 °F 89.9 °F 57.2 °F 31% 30.01 in 6.2 mi NNW 3.5 mph - N/A   Partly Cloudy
1:55 PM 91.4 °F 93.2 °F 64.4 °F 41% 29.98 in 6.2 mi SSE 17.3 mph - N/A   Scattered Clouds
2:00 PM 91 °F - 64 °F 30% 30.00 in 16 mi SSE 33.6 mph - -   Partly Cloudy
2:55 PM 91.4 °F 93.2 °F 64.4 °F 41% 29.98 in 6.2 mi SSE 17.3 mph - N/A   Scattered Clouds
3:55 PM 91.4 °F 94.0 °F 66.2 °F 43% 29.98 in 6.2 mi SE 16.1 mph - N/A   Scattered Clouds
4:55 PM 89.6 °F 92.2 °F 66.2 °F 46% 29.98 in 6.2 mi SE 13.8 mph - N/A   Partly Cloudy
5:00 PM 90 °F - 65 °F 34% 29.99 in 16 mi SE 26.8 mph - -   Scattered Clouds
5:55 PM 89.6 °F 90.1 °F 62.6 °F 40% 29.98 in 6.2 mi SE 9.2 mph - N/A   Partly Cloudy
6:55 PM 87.8 °F 87.6 °F 60.8 °F 40% 29.98 in 6.2 mi NW 18.4 mph - N/A   Partly Cloudy
7:55 PM 86.0 °F 86.1 °F 60.8 °F 43% 29.98 in 6.2 mi NNW 16.1 mph - N/A   Partly Cloudy
8:00 PM 86 °F - 60 °F 32% 29.99 in 19 mi NNW 16.1 mph - -   Scattered Clouds
8:55 PM 82.4 °F 82.5 °F 59.0 °F 45% 29.98 in 6.2 mi NNW 13.8 mph - N/A   Partly Cloudy
9:55 PM 78.8 °F - 62.6 °F 57% 30.01 in - NNW 3.5 mph - N/A   Clear
10:55 PM 77.0 °F - 60.8 °F 57% 30.04 in - NNE 8.1 mph - N/A   Clear
11:00 PM 78 °F - 60 °F 44% 30.05 in 12 mi NNE 8.1 mph - -  
11:55 PM 75.2 °F - 64.4 °F 69% 30.04 in - NNE 10.4 mph - N/A   Clear